NOAA 16 DEB, 41073

Orbit data source: Space-Track

NOAA 16 DEB, 41073 is space debris in SSO originally from a launch on Thu, 21 Sep 2000 UTC launched from the Air Force Western Test Range (AFWTR). Debris objects in space refer to the collection of defunct objects orbiting the Earth. Examples of debris include non-operational satellites, rocket bodies, and fragments generated from explosions, collisions, or faulty payload assembly.

Loading next visibility...
NOAA 16 DEB details
Identifier
41073, 2000-055AG
Orbit
SSO
Last TLE update1 day ago
Origin
Flag of USNOAA (US)
ManufacturerUnknown
MissionSpacecraft
Bus & MotorUnknown
MassUnknown
Launch date (UTC)
2000-09-21 (24 years ago)
Launch vehicleUnknown
Launch site
Air Force Western Test Range (AFWTR)
Object type
Payload
Rocket body
Debris
Shape & HBRUnknown
Radar Cross SectionSmall (<0.1 m²)

Expand to show TLE details & history

TLE from 1 day ago
0 NOAA 16 DEB
1 41073U 00055AG  24360.21131820  .00008475  00000-0  34367-2 0  9997
2 41073  98.7742  97.3883 0018840 312.3218  47.6365 14.27816083470319
Epoch: 2024-12-25T05:04Z
Definitive object data (Epoch: 2024-12-25T05:04:17.892Z)
Latitude-0.0001°
Longitude-72.89456°
Altitude792.864 km
Speed7.462 km/s
True Right ascension06h 29m 33s
True Declination0° 00' 00"
Sunlit
Object was in full shadow at TLE epoch
Visualization TLE readout
Latitude75.03873°
Longitude143.38865°
Altitude823.854 km
Speed7.442 km/s
Apparent Right ascension21h 19m 56s
Apparent Declination23° 00' 21"
Sunlit
Object is in daylight
Visualization observer readout
Local Sidereal Time09:29:32
Azimuth2.48° NNE
Elevation-27.038°
Doppler factor1
Orbital elements
Apogee altitude809.708 km
Perigee altitude782.675 km
Semi-major axis7,174.328 km
Eccentricity0.001884
Inclination98.7742°
RAAN97.3883°
Arg. of periapsis312.3218°
True anomaly47.79627°
Mean anomaly47.6365°
Eccentric anomaly47.71636°
Mean motion3.57167 °/min
BSTAR0.0034367
Orbital period100.79 mins
Loading maneuver chart data...
Loading historical data...
Loading historical data...
Loading historical data...
Loading historical data...
Loading historical data...
Loading historical data...
Loading historical data...

NOAA 16 DEB Visibility forecast

Observer location: undefined°, undefined

Span
Click to sort rows by Start time (UTC) header in descending order
Start Az.
Max El. time (UTC)
Max El. Az.
Max El.
End time (UTC)
End Az.
7 mins2024-12-26 18:40:24.519Z45.333° ENE2024-12-26 18:44:24.519Z102.997° ESE23.273°2024-12-26 18:47:24.519Z143.794° SSE
8 mins2024-12-26 20:20:24.519Z348.335° N2024-12-26 20:23:24.519Z298.374° NW31.707°2024-12-26 20:28:24.519Z224.9° SW
8 mins2024-12-27 05:59:24.519Z125.836° SE2024-12-27 06:02:24.519Z75.174° E31.366°2024-12-27 06:07:24.519Z2.843° NNE
7 mins2024-12-27 07:39:24.519Z220.596° SW2024-12-27 07:42:24.519Z266.168° W23.332°2024-12-27 07:46:24.519Z318.758° NNW
|